Temp
29 28 27 27 26 26 27 27 27 27 28 28 30 31 31 32 32 34 35 37 39 40
26 27 27 27 26 26 26 31 27 27 27 27 28 29 29 29 30 31 33 34 36 38
26 26 26 26 26 26 26 27 27 26 26 27 27 27 27 28 29 30 31 34 34 35
26 26 26 26 26 26 26 26 26 26 26 26 26 27 26 27 29 28 29 31 32 33
27 26 25 26 25 26 24 26 25 25 25 25 26 26 25 26 27 27 28 29 30 32
26 25 24 25 25 25 24 24 24 26 25 25 26 25 26 25 26 28 28 29 30 31
25 25 25 25 24 25 24 23 23 24 24 26 25 27 27 28 27 27 29 30 31 32
25 25 24 24 24 24 24 24 23 23 24 24 25 29 28 30 29 28 28 30 30 32
22 24 24 24 23 23 23 23 23 22 22 22 27 31 33 33 30 30 30 28 29 30
21 22 22 23 23 23 21 21 21 21 21 21 22 29 32 34 30 30 29 29 29 30
20 20 21 21 22 21 21 19 19 20 20 21 23 29 31 33 30 28 28 29 29 28
19 19 18 19 19 20 19 18 18 21 20 20 21 28 30 31 28 28 28 29 29 29
17 18 16 17 15 15 16 20 22 23 22 23 22 27 30 30 28 27 28 29 30 33
13 14 13 8 3 11 13 20 17 20 20 20 21 21 28 31 29 28 28 28 29 31
MSLP
1031.96 1032.30 1032.58 1032.75 1032.86 1032.84 1032.98 1033.11 1033.07 1032.91 1032.76 1032.54 1032.28 1032.07 1031.74 1031.39 1031.29 1031.13 1030.79 1030.34 1029.96 1029.22
1031.81 1032.02 1032.25 1032.48 1032.61 1032.68 1032.75 1032.56 1032.88 1032.88 1032.76 1032.60 1032.47 1032.27 1031.97 1031.86 1031.68 1031.56 1031.32 1030.92 1030.38 1030.06
1031.34 1031.58 1031.87 1032.15 1032.28 1032.38 1032.52 1032.60 1032.70 1032.72 1032.72 1032.70 1032.65 1032.42 1032.09 1031.85 1031.65 1031.37 1030.97 1030.46 1030.27 1029.71
1030.81 1031.17 1031.45 1031.64 1031.80 1031.96 1032.10 1032.28 1032.44 1032.58 1032.70 1032.76 1032.69 1032.45 1032.23 1032.02 1031.59 1031.30 1030.89 1030.55 1030.22 1029.91
1030.21 1030.64 1030.94 1031.11 1031.33 1031.55 1031.85 1032.06 1032.29 1032.38 1032.49 1032.54 1032.55 1032.46 1032.45 1032.25 1031.81 1031.45 1031.02 1030.64 1030.38 1030.02
1029.42 1029.80 1030.13 1030.51 1030.88 1031.30 1031.70 1031.91 1032.07 1032.07 1032.24 1032.31 1032.29 1032.43 1032.42 1032.31 1031.95 1031.55 1031.13 1030.72 1030.48 1030.23
1028.34 1028.69 1029.23 1029.75 1030.30 1030.71 1031.07 1031.35 1031.53 1031.57 1031.75 1031.90 1032.09 1032.12 1032.09 1031.86 1031.67 1031.38 1030.97 1030.62 1030.20 1029.96
1027.28 1027.97 1028.64 1029.27 1029.81 1030.25 1030.60 1030.81 1031.04 1031.26 1031.48 1031.69 1031.71 1031.32 1031.32 1031.10 1031.00 1030.77 1030.52 1030.26 1029.94 1029.54
1026.53 1027.16 1027.83 1028.54 1029.10 1029.69 1030.11 1030.51 1030.91 1031.17 1031.27 1031.33 1031.05 1030.61 1030.31 1030.02 1030.14 1030.16 1030.08 1029.88 1029.67 1029.51
1025.59 1026.22 1026.82 1027.46 1028.17 1028.67 1029.20 1029.83 1030.34 1030.68 1030.83 1030.71 1030.61 1030.06 1029.71 1029.42 1029.52 1029.60 1029.53 1029.51 1029.33 1028.99
1024.84 1025.50 1026.25 1026.91 1027.48 1028.14 1028.80 1029.35 1029.69 1030.01 1030.14 1030.07 1029.88 1029.18 1028.98 1028.88 1028.97 1029.08 1029.08 1029.04 1028.96 1028.77
1024.12 1024.85 1025.56 1026.19 1026.94 1027.77 1028.49 1028.97 1029.16 1029.51 1029.91 1029.82 1029.72 1029.34 1028.76 1028.45 1028.54 1028.45 1028.47 1028.32 1028.20 1028.12
1023.74 1024.31 1024.67 1025.24 1026.22 1027.08 1027.82 1028.40 1028.67 1028.77 1029.08 1029.26 1029.48 1029.27 1028.95 1028.44 1028.27 1027.92 1027.87 1027.84 1027.57 1027.31
1023.93 1024.82 1025.39 1025.80 1026.33 1026.97 1027.57 1028.13 1028.69 1028.57 1028.81 1028.82 1028.95 1029.14 1028.73 1028.14 1027.79 1027.63 1027.24 1027.04 1026.89 1026.81
Wind_Speed
6 4 3 3 2 2 2 1 3 4 5 5 6 5 6 4 4 6 5 8 7 6
6 6 5 5 4 3 2 1 4 4 4 5 5 5 5 3 4 4 3 4 4 5
7 6 5 5 5 4 3 2 2 4 4 4 4 5 5 4 4 5 4 4 6 4
7 7 6 5 5 5 3 2 1 2 3 3 4 5 5 5 5 6 6 6 7 8
8 7 7 6 6 5 4 3 2 0 1 2 3 4 4 4 5 5 5 7 6 7
10 9 9 8 7 6 5 5 4 2 1 2 3 4 4 4 4 5 5 5 5 6
12 12 10 9 8 7 6 6 5 3 1 2 3 4 5 5 5 5 4 5 5 6
12 10 9 9 8 7 6 5 5 4 3 3 4 4 4 4 5 5 4 4 5 5
11 12 12 10 9 8 6 5 5 5 4 4 4 7 10 8 4 3 5 5 5 5
13 13 13 11 10 10 8 6 6 5 5 5 5 9 9 10 4 5 4 6 6 6
14 14 12 11 11 9 7 8 5 5 5 5 5 8 9 10 5 4 5 7 6 6
13 13 13 13 11 8 7 5 5 4 4 5 5 10 10 9 5 7 8 6 6 5
11 13 14 13 11 5 4 5 5 6 5 8 5 10 13 11 5 7 6 7 6 12
7 7 6 7 3 5 5 4 3 4 3 3 5 7 15 14 7 6 6 6 6 6
Wind_Direction
172 166 166 161 150 107 80 28 16 9 4 357 355 358 356 356 2 356 338 345 347 348
182 179 179 175 166 152 123 56 35 17 6 359 354 349 356 3 346 335 330 315 334 329
187 187 181 176 179 168 153 107 36 21 12 359 350 347 355 349 333 352 349 352 339 345
190 187 182 188 188 181 161 135 64 22 6 354 346 352 353 341 357 347 344 349 350 338
185 181 188 193 189 181 188 189 195 181 352 341 338 342 342 330 327 330 334 333 333 330
191 189 195 193 185 182 185 196 206 194 303 331 327 325 310 294 294 297 298 295 303 304
196 196 193 186 183 185 186 190 199 196 241 273 281 293 278 270 282 283 289 285 302 311
199 190 182 183 183 183 188 196 188 194 215 235 256 251 251 260 264 271 293 300 294 309
190 184 187 182 178 182 188 192 195 209 212 227 267 281 297 302 275 302 305 303 304 293
190 190 188 179 177 185 185 180 200 209 217 230 226 275 290 300 303 298 289 296 297 302
191 192 181 178 185 181 177 191 190 207 217 232 255 274 289 299 297 286 283 275 279 283
190 187 178 184 182 175 169 174 181 215 228 237 265 280 284 291 293 286 280 272 264 267
187 191 188 179 168 145 150 187 206 223 212 234 248 277 288 292 278 280 281 279 267 280
167 183 177 131 112 131 148 181 189 231 265 264 259 268 283 285 281 275 279 279 278 267